SCP
1 1 1 1 1 1 1 1 1 1 1 1 1 1 1 1 0 0 0 0 0 0 0 0 0 0 0 0 0 0 1 1 1 1 1 1 1 0 0 0 0 0 0
1 1 1 1 1 1 1 1 1 1 1 1 1 1 1 1 1 0 0 0 0 0 0 0 0 0 0 0 0 1 1 1 1 1 1 1 1 0 0 0 0 0 0
1 1 1 1 1 1 1 1 1 1 1 1 1 1 1 1 1 1 0 0 0 0 0 0 0 0 0 0 0 1 1 1 1 1 1 1 0 0 0 0 0 0 0
1 1 1 1 1 2 2 1 1 1 1 1 1 1 1 1 1 1 1 1 0 0 0 0 0 0 0 0 1 1 1 1 1 1 1 1 1 0 0 0 0 0 0
1 1 1 1 2 2 2 2 2 1 1 1 1 1 1 1 1 1 1 1 1 1 0 0 1 1 1 1 1 1 1 1 1 1 1 1 1 1 0 0 0 0 0
1 1 1 1 1 2 2 2 2 2 2 1 1 1 1 1 1 1 1 1 1 1 0 0 1 1 1 1 1 1 1 1 1 1 1 1 1 1 0 0 0 0 0
1 1 1 1 1 1 1 1 1 2 2 1 1 1 1 1 1 1 1 1 1 0 0 0 0 1 1 1 1 1 1 1 1 1 1 1 1 1 1 0 0 0 0
0 0 0 1 1 1 1 1 1 1 1 1 1 1 1 1 1 1 1 1 0 0 0 0 0 0 1 1 1 1 1 1 1 1 1 1 1 1 1 1 0 0 0
0 0 0 0 0 1 1 1 1 1 1 1 1 1 1 1 0 0 0 0 0 0 0 0 0 0 1 1 1 1 1 1 1 1 1 1 1 1 1 1 0 0 0
0 0 0 0 0 0 0 1 1 1 1 1 1 1 1 1 0 0 0 0 0 0 0 0 0 0 0 1 1 0 1 1 1 1 1 1 1 1 1 1 1 1 0
0 0 0 0 0 0 0 0 1 1 1 1 1 1 1 1 1 1 0 0 0 0 0 0 0 0 0 0 0 0 0 0 0 1 1 1 1 1 1 1 1 1 1
0 0 0 0 0 0 0 0 0 1 1 1 1 1 1 1 1 1 1 0 0 0 0 0 0 0 0 0 0 0 0 0 0 0 0 0 0 0 1 1 1 1 1
0 0 0 0 0 0 0 0 0 0 1 1 1 1 1 1 1 1 1 0 0 0 0 0 0 0 0 0 0 0 0 0 0 0 0 0 0 0 0 0 0 0 1
0 0 0 0 0 0 0 0 0 0 0 0 0 1 1 1 1 0 0 0 0 0 0 0 0 0 0 0 0 0 0 0 0 0 0 0 0 0 0 0 0 0 0
0 0 0 0 0 0 0 0 0 0 0 0 0 0 0 0 0 0 0 0 0 0 0 0 0 0 0 0 0 0 0 0 0 0 0 0 0 0 0 0 0 0 0
0 0 0 0 0 0 0 0 0 0 0 0 0 0 0 0 0 0 0 0 0 0 0 0 0 0 0 0 0 0 0 0 0 0 0 0 0 0 0 0 0 0 0
0 0 0 0 0 0 0 0 0 0 0 0 0 0 0 0 0 0 0 0 0 0 0 0 0 0 0 0 0 0 0 0 0 0 0 0 0 0 0 0 0 0 0
0 0 0 0 0 0 0 0 0 0 0 0 0 0 0 0 0 0 0 0 0 0 0 0 0 0 0 0 0 0 0 0 0 0 0 0 0 0 0 0 0 0 0
0 0 0 0 0 0 0 0 0 0 0 0 0 0 0 0 0 0 0 0 0 0 0 0 0 0 0 0 0 0 0 0 0 0 0 0 0 0 0 0 0 0 0
0 0 0 0 0 0 0 0 0 0 0 0 0 0 0 0 0 0 0 0 0 0 0 0 0 0 0 0 0 0 0 0 0 0 0 0 0 0 0 0 0 0 0
0 0 0 0 0 0 0 0 0 0 0 0 0 0 0 0 0 0 0 0 0 0 0 0 0 -0 0 0 0 0 0 0 0 0 0 0 0 0 0 0 0 0 0
0 0 0 0 0 0 0 0 0 0 0 0 0 0 0 0 0 0 0 0 -0 -0 0 0 0 -0 0 0 0 0 0 0 0 0 0 0 0 0 0 0 0 0 0
0 0 0 0 0 0 0 0 0 0 0 0 0 0 0 0 0 0 0 0 -0 -0 -0 -0 -0 0 0 0 0 0 0 0 0 0 0 0 0 0 0 0 0 0 0
0 0 0 0 0 0 0 0 0 0 0 0 0 0 0 0 -0 -0 -0 0 0 0 0 0 0 0 0 0 -0 -0 0 0 0 0 0 0 0 0 0 0 0 0 0
0 0 0 0 0 0 0 0 0 0 0 0 0 0 0 0 0 0 0 0 0 0 0 0 0 0 0 0 0 -0 0 0 0 0 0 0 0 0 0 0 0 0 0
0 0 0 0 0 0 0 0 0 0 0 0 0 0 0 0 0 0 0 0 0 0 0 0 0 0 0 0 0 0 -0 0 0 0 0 0 0 0 0 0 0 0 0
Wind_Speed
6 6 6 5 6 6 7 7 7 8 8 8 8 10 11 11 10 9 7 15 17 16 18 18 17 16 16 17 19 19 19 19 19 19 19 20 20 20 20 20 19 19 18
7 6 7 7 7 7 7 6 7 7 7 7 8 9 10 9 9 9 9 11 16 16 17 18 18 17 17 17 17 18 18 18 18 18 19 19 19 19 19 19 19 19 19
9 8 7 8 8 7 8 7 8 7 7 7 9 9 8 8 9 10 10 9 9 13 16 17 18 18 18 18 18 18 18 17 17 18 19 19 19 19 19 18 18 18 18
10 8 8 8 8 7 7 7 7 7 7 7 7 7 7 7 10 11 10 9 8 9 11 15 16 17 18 19 19 18 18 17 18 19 19 20 20 19 19 18 18 17 17
8 7 7 7 7 6 6 8 7 6 7 8 8 7 7 7 9 10 10 11 10 10 9 10 14 16 18 19 19 19 19 18 19 20 20 21 21 20 19 19 18 17 17
5 5 5 7 6 6 6 7 8 7 7 7 8 8 7 8 8 9 11 10 10 11 11 10 9 10 16 18 18 19 19 19 20 20 21 22 22 21 20 19 19 18 17
5 5 5 5 5 5 7 7 7 8 8 5 5 6 6 8 10 9 9 9 11 12 11 10 8 8 7 14 17 19 20 21 20 20 21 21 22 21 21 20 19 18 18
6 5 5 5 5 5 7 7 7 6 5 5 5 4 4 4 7 9 8 9 11 9 10 11 9 9 8 7 10 16 19 20 20 20 20 20 20 20 20 20 20 19 19
7 6 6 6 6 6 6 7 7 9 7 6 7 6 5 6 3 3 6 7 7 6 7 7 8 9 9 8 9 13 17 17 18 19 19 18 18 19 20 20 20 20 19
6 7 7 7 7 6 7 8 8 8 9 7 6 8 7 5 4 3 3 4 6 6 7 6 7 7 7 6 7 11 13 14 14 14 14 15 16 17 19 20 21 21 20
6 6 7 7 7 7 8 9 9 9 8 8 7 6 8 7 8 6 5 3 3 4 5 5 5 5 4 4 4 5 8 8 7 7 8 9 11 14 17 20 21 22 21
5 6 7 7 8 7 9 9 9 10 9 10 8 7 6 5 6 7 8 5 4 3 3 2 2 2 1 1 1 1 2 3 3 2 1 2 4 7 11 16 19 20 20
5 7 7 8 8 8 9 9 9 10 10 10 10 8 7 7 5 5 6 5 4 2 1 0 1 1 1 2 3 6 6 6 7 6 5 5 4 3 2 4 9 12 13
6 8 8 9 10 10 10 9 8 9 8 9 9 8 6 6 6 5 5 5 4 3 2 1 2 3 3 3 5 6 5 9 9 9 8 9 8 8 7 6 5 5 3
6 8 9 9 10 10 9 9 7 8 7 7 7 7 5 4 5 5 4 4 4 4 3 2 2 3 3 4 5 5 6 10 11 10 10 10 10 10 10 10 10 10 9
6 8 9 10 10 10 9 7 6 6 5 4 4 5 4 3 4 3 3 3 3 3 3 2 3 3 4 5 7 7 8 12 12 11 10 10 10 10 10 10 10 10 9
6 7 8 9 10 10 9 6 5 4 3 2 2 3 3 3 3 3 3 3 3 5 6 4 3 3 4 6 6 6 7 7 8 12 12 11 11 11 11 11 10 9 8
5 6 7 8 8 9 8 7 5 2 1 2 2 2 3 3 3 3 4 5 6 6 7 7 4 4 5 5 6 7 6 7 7 12 12 12 12 12 12 12 11 10 9
4 5 5 6 7 7 7 6 5 5 5 5 5 5 4 5 5 5 7 7 7 7 6 8 5 3 5 5 6 7 8 6 6 8 10 11 11 12 12 11 11 11 10
3 3 4 4 5 5 6 7 7 7 8 8 8 7 6 6 7 8 8 8 8 8 8 8 6 5 4 4 5 5 6 6 6 6 6 6 8 10 11 11 11 11 9
3 2 2 3 3 3 4 5 7 8 8 9 9 8 8 10 10 7 8 7 8 8 7 8 7 5 4 4 4 2 4 3 5 5 4 4 4 5 5 7 9 10 9
4 2 1 1 2 2 4 7 6 7 7 8 8 7 9 11 14 15 14 11 9 9 9 7 6 7 4 4 3 3 3 4 4 5 4 4 4 4 4 5 8 9 10
5 4 3 2 1 1 3 6 7 6 6 5 5 6 7 8 9 10 14 15 13 12 10 8 9 6 4 2 4 5 5 5 4 4 3 4 4 4 4 4 9 10 11
6 6 5 5 4 3 4 6 7 6 6 6 5 5 7 6 6 9 11 11 9 8 7 7 7 5 4 3 3 4 4 4 3 4 4 4 4 3 3 4 8 11 12
7 7 6 7 6 5 7 7 7 5 6 6 5 5 6 7 8 12 12 11 10 8 10 12 11 10 10 8 4 4 4 5 4 4 5 3 3 3 3 3 5 10 12
9 9 8 7 8 7 9 9 8 5 6 5 5 6 7 8 9 10 10 11 10 6 7 8 9 10 9 10 10 6 4 4 3 3 5 3 4 3 3 3 4 6 8
Wind_Direction
242 242 244 242 242 241 243 247 250 252 250 249 247 245 244 244 244 245 253 258 260 259 262 264 264 261 256 247 239 234 232 228 222 219 219 220 221 222 222 221 219 217 215
240 241 246 245 242 239 240 241 247 251 251 248 251 249 247 246 244 243 246 255 258 259 261 265 266 264 259 252 243 237 233 230 224 220 219 221 222 222 223 224 222 219 216
240 240 242 243 241 236 235 237 241 242 245 242 244 246 246 246 243 244 246 248 254 256 256 258 261 261 259 254 247 240 235 229 224 221 220 221 222 222 222 223 222 220 216
241 240 242 245 243 237 235 235 234 237 240 240 240 241 240 238 244 244 245 245 246 252 253 251 252 254 255 254 250 243 237 231 226 223 221 221 221 221 221 221 222 219 215
251 243 246 251 249 244 241 242 235 226 236 239 240 240 237 241 244 247 245 244 243 244 246 248 247 249 253 256 252 246 240 234 230 226 223 222 222 221 220 219 220 218 214
271 263 257 259 257 253 248 241 241 232 232 235 245 247 237 235 235 239 243 245 245 247 247 248 246 248 249 251 251 248 244 239 234 230 227 224 222 220 218 217 216 216 211
293 282 275 272 264 256 255 250 246 243 241 231 238 254 250 240 238 237 238 242 246 247 247 247 247 246 248 245 245 246 245 244 239 234 230 226 222 219 216 214 214 213 210
305 302 288 282 274 267 264 257 248 246 242 211 213 231 258 258 236 234 232 235 242 244 248 248 246 242 244 245 243 240 242 243 242 237 232 226 221 216 213 213 211 210 209
307 300 294 288 282 272 268 262 250 245 246 228 211 210 216 233 250 245 233 234 237 236 240 243 246 246 244 242 243 238 237 238 240 239 233 226 221 215 211 211 210 209 209
305 305 303 298 290 280 272 268 260 248 243 241 223 218 222 208 217 256 246 235 234 234 237 241 246 248 246 242 239 237 235 235 237 238 235 231 225 217 211 210 211 209 209
302 306 306 302 296 288 279 272 266 254 244 241 230 217 225 228 225 232 252 243 233 236 238 244 251 252 249 245 248 245 231 225 225 231 238 240 233 221 212 210 212 212 211
300 303 307 301 295 289 284 277 269 259 249 243 237 224 214 213 212 219 232 236 236 237 237 251 252 251 255 287 23 56 108 130 134 141 191 243 239 224 215 213 215 215 214
305 308 310 304 300 292 286 280 274 264 253 246 239 232 226 224 211 208 221 228 228 220 204 122 22 33 63 49 50 63 71 87 88 86 84 83 79 93 145 195 211 213 216
294 298 303 302 300 298 293 284 276 266 255 245 238 229 225 223 215 207 204 200 205 196 180 138 55 44 52 48 59 61 64 71 76 78 79 78 76 75 76 81 90 110 131
294 303 306 305 304 302 297 290 276 268 255 240 229 220 216 214 209 207 199 188 186 184 168 129 91 41 53 59 55 67 66 68 72 75 79 80 78 75 74 73 75 75 74
297 309 314 313 311 307 302 294 282 269 253 236 217 205 205 202 193 192 184 181 182 157 125 83 74 52 62 77 67 72 72 68 65 73 76 80 80 79 77 74 71 69 66
302 313 319 321 321 320 315 306 293 280 247 212 188 183 183 171 167 163 142 130 115 112 113 87 56 49 61 74 68 71 72 70 68 68 74 76 77 76 73 71 67 63 58
298 311 321 327 334 337 334 333 332 341 56 85 98 122 112 118 112 111 110 109 104 102 115 110 76 57 63 67 72 68 65 69 69 66 70 72 73 72 69 66 62 56 48
293 312 326 336 342 346 351 359 14 39 51 55 58 70 80 93 91 94 98 101 102 102 99 108 96 68 65 56 67 65 61 55 60 62 64 64 67 70 69 65 59 52 43
274 304 321 336 345 359 14 27 45 55 56 54 53 55 62 78 95 103 101 103 106 103 100 102 97 80 66 50 67 70 67 53 47 39 47 51 57 63 62 58 51 43 34
239 267 309 347 353 8 35 48 61 68 68 64 56 56 70 86 86 95 109 111 112 108 103 100 95 85 68 60 61 55 77 69 56 30 30 37 38 48 49 45 40 30 21
208 203 226 14 17 43 64 66 74 77 73 75 74 69 76 81 84 83 85 87 100 113 112 103 96 92 81 72 70 67 67 61 47 11 18 29 28 40 34 33 21 17 11
193 188 189 167 143 108 99 85 79 83 81 76 77 82 88 86 90 93 82 76 73 80 97 110 104 100 94 90 96 85 74 72 60 356 4 32 20 34 25 24 17 16 9
189 187 187 177 166 171 146 118 98 85 81 72 72 91 103 94 100 105 97 85 75 67 76 88 98 95 93 95 93 98 98 89 67 32 16 34 8 6 352 9 15 12 7
189 186 184 179 173 175 169 149 124 105 93 76 65 71 99 101 112 113 106 101 91 79 75 81 82 78 74 71 96 102 88 79 57 28 16 26 4 349 346 358 1 5 0
194 183 183 184 178 177 180 165 140 125 110 97 74 62 73 99 112 118 119 118 111 106 104 88 70 58 59 55 53 65 90 92 76 39 12 13 11 7 12 351 346 359 2